Location: Bagnolo San Vito
(45.0833°N, 10.8833°E)
Time: 14:46:43
(UTC+00:00)

Gbstr 26 Del rocket - Pass Details

Date: 03 March 2021
Orbit: 492 x 1264 km, 51.8° (Epoch: 13 April)

Event Time Altitude Azimuth Distance (km) Brightness Sun altitude
Rises 18:07:58 0° 275° (W) 2,763 8.6 -11.6°
Reaches altitude 10° 18:10:10 10° 283° (WNW) 1,947 7.1 -12.0°
Maximum altitude 18:14:21 40° 354° (N) 1,010 4.2 -12.7°
Enters shadow 18:18:38 14° 60° (ENE) 2,081 5.3 -13.5°
